TimePDT,TemperatureF,Dew PointF,Humidity,Sea Level PressureIn,VisibilityMPH,Wind Direction,Wind SpeedMPH,Gust SpeedMPH,PrecipitationIn,Events,Conditions,WindDirDegrees,DateUTC
12:15 AM,78.8,46.4,32,29.91,10.0,SSE,11.5,-,N/A,,Clear,150,2013-07-26 07:15:00
12:35 AM,77.0,46.4,34,29.91,10.0,SSE,12.7,-,N/A,,Clear,150,2013-07-26 07:35:00
12:55 AM,77.0,46.4,34,29.92,10.0,SSE,10.4,-,N/A,,Clear,160,2013-07-26 07:55:00
1:15 AM,77.0,46.4,34,29.92,10.0,SSE,11.5,-,N/A,,Clear,150,2013-07-26 08:15:00
1:35 AM,75.2,46.4,36,29.92,10.0,SSE,9.2,-,N/A,,Clear,160,2013-07-26 08:35:00
1:55 AM,73.4,46.4,38,29.92,10.0,South,11.5,-,N/A,,Clear,170,2013-07-26 08:55:00
2:15 AM,73.4,46.4,38,29.92,10.0,South,9.2,-,N/A,,Clear,170,2013-07-26 09:15:00
2:35 AM,71.6,46.4,41,29.92,10.0,South,12.7,-,N/A,,Clear,170,2013-07-26 09:35:00
2:55 AM,71.6,48.2,43,29.93,10.0,South,8.1,-,N/A,,Clear,170,2013-07-26 09:55:00
3:15 AM,69.8,48.2,46,29.93,10.0,South,11.5,-,N/A,,Clear,170,2013-07-26 10:15:00
3:35 AM,69.8,48.2,46,29.93,10.0,South,8.1,-,N/A,,Clear,170,2013-07-26 10:35:00
3:55 AM,69.8,48.2,46,29.93,10.0,South,8.1,-,N/A,,Clear,170,2013-07-26 10:55:00
4:15 AM,69.8,48.2,46,29.94,10.0,South,8.1,-,N/A,,Clear,180,2013-07-26 11:15:00
4:35 AM,68.0,50.0,52,29.94,10.0,SSE,8.1,-,N/A,,Clear,160,2013-07-26 11:35:00
4:55 AM,66.2,50.0,56,29.94,10.0,SSE,6.9,-,N/A,,Clear,160,2013-07-26 11:55:00
5:15 AM,68.0,48.2,49,29.95,10.0,SSE,8.1,-,N/A,,Clear,150,2013-07-26 12:15:00
5:35 AM,68.0,48.2,49,29.95,10.0,SSE,9.2,-,N/A,,Clear,150,2013-07-26 12:35:00
5:55 AM,68.0,48.2,49,29.96,10.0,SE,6.9,-,N/A,,Clear,140,2013-07-26 12:55:00
6:15 AM,66.2,50.0,56,29.97,10.0,South,8.1,-,N/A,,Clear,170,2013-07-26 13:15:00
6:35 AM,66.2,50.0,56,29.97,10.0,South,8.1,-,N/A,,Clear,170,2013-07-26 13:35:00
6:55 AM,64.4,50.0,59,29.98,10.0,SSE,8.1,-,N/A,,Clear,160,2013-07-26 13:55:00
7:15 AM,68.0,50.0,52,29.98,10.0,South,8.1,-,N/A,,Clear,170,2013-07-26 14:15:00
7:35 AM,68.0,50.0,52,29.99,10.0,South,9.2,-,N/A,,Clear,170,2013-07-26 14:35:00
7:55 AM,69.8,50.0,49,30.00,10.0,South,10.4,-,N/A,,Clear,170,2013-07-26 14:55:00
8:15 AM,71.6,50.0,46,30.00,10.0,SSE,6.9,-,N/A,,Clear,160,2013-07-26 15:15:00
8:35 AM,73.4,48.2,41,30.01,10.0,SSE,9.2,-,N/A,,Clear,160,2013-07-26 15:35:00
8:55 AM,75.2,46.4,36,30.01,10.0,SSE,10.4,-,N/A,,Clear,150,2013-07-26 15:55:00
9:15 AM,78.8,46.4,32,30.01,10.0,SSE,9.2,-,N/A,,Clear,160,2013-07-26 16:15:00
9:35 AM,78.8,46.4,32,30.01,10.0,South,10.4,-,N/A,,Clear,180,2013-07-26 16:35:00
9:55 AM,80.6,46.4,30,30.01,10.0,South,8.1,-,N/A,,Clear,170,2013-07-26 16:55:00
10:15 AM,82.4,46.4,28,30.01,10.0,SSE,11.5,-,N/A,,Clear,160,2013-07-26 17:15:00
10:35 AM,82.4,46.4,28,30.01,10.0,SSE,10.4,-,N/A,,Clear,160,2013-07-26 17:35:00
10:55 AM,84.2,48.2,29,30.01,10.0,South,11.5,-,N/A,,Clear,180,2013-07-26 17:55:00
11:15 AM,86.0,48.2,27,30.01,10.0,South,12.7,-,N/A,,Clear,170,2013-07-26 18:15:00
11:35 AM,86.0,46.4,25,30.01,10.0,South,10.4,-,N/A,,Clear,180,2013-07-26 18:35:00
11:55 AM,86.0,48.2,27,30.00,10.0,South,10.4,-,N/A,,Clear,190,2013-07-26 18:55:00
12:15 PM,86.0,50.0,29,30.00,10.0,SSW,10.4,-,N/A,,Clear,200,2013-07-26 19:15:00
12:35 PM,86.0,50.0,29,29.99,10.0,South,10.4,-,N/A,,Clear,190,2013-07-26 19:35:00
12:55 PM,87.8,48.2,25,29.99,10.0,South,5.8,9.2,N/A,,Clear,190,2013-07-26 19:55:00
1:15 PM,87.8,50.0,27,29.98,10.0,South,5.8,-,N/A,,Clear,190,2013-07-26 20:15:00
1:35 PM,89.6,50.0,26,29.97,10.0,SSW,5.8,-,N/A,,Clear,200,2013-07-26 20:35:00
1:55 PM,89.6,51.8,27,29.97,10.0,SW,5.8,-,N/A,,Clear,230,2013-07-26 20:55:00
2:15 PM,93.2,50.0,23,29.96,10.0,SW,5.8,-,N/A,,Clear,220,2013-07-26 21:15:00
2:35 PM,93.2,50.0,23,29.95,10.0,SW,9.2,-,N/A,,Clear,230,2013-07-26 21:35:00
2:55 PM,95.0,51.8,23,29.95,10.0,SW,5.8,-,N/A,,Clear,230,2013-07-26 21:55:00
3:15 PM,95.0,50.0,22,29.94,10.0,SW,5.8,-,N/A,,Clear,220,2013-07-26 22:15:00
3:35 PM,96.8,50.0,20,29.93,10.0,SSW,6.9,-,N/A,,Clear,210,2013-07-26 22:35:00
3:55 PM,96.8,50.0,20,29.93,10.0,SSW,8.1,-,N/A,,Clear,210,2013-07-26 22:55:00
4:15 PM,98.6,50.0,19,29.92,10.0,WSW,8.1,-,N/A,,Clear,240,2013-07-26 23:15:00
4:35 PM,98.6,50.0,19,29.91,10.0,SW,6.9,-,N/A,,Clear,230,2013-07-26 23:35:00
4:55 PM,98.6,50.0,19,29.90,10.0,SSW,8.1,-,N/A,,Clear,200,2013-07-26 23:55:00
5:15 PM,98.6,50.0,19,29.90,10.0,SSW,5.8,-,N/A,,Clear,200,2013-07-27 00:15:00
5:35 PM,98.6,51.8,21,29.89,10.0,SSW,8.1,-,N/A,,Clear,210,2013-07-27 00:35:00
5:55 PM,98.6,50.0,19,29.89,10.0,SW,9.2,-,N/A,,Clear,220,2013-07-27 00:55:00
6:15 PM,98.6,48.2,18,29.88,10.0,SSW,8.1,-,N/A,,Clear,200,2013-07-27 01:15:00
6:35 PM,98.6,50.0,19,29.88,10.0,SSW,9.2,-,N/A,,Clear,200,2013-07-27 01:35:00
6:55 PM,98.6,50.0,19,29.88,10.0,South,10.4,-,N/A,,Clear,190,2013-07-27 01:55:00
7:15 PM,96.8,50.0,20,29.88,10.0,South,10.4,-,N/A,,Clear,170,2013-07-27 02:15:00
7:35 PM,95.0,51.8,23,29.88,10.0,South,11.5,-,N/A,,Clear,180,2013-07-27 02:35:00
7:55 PM,93.2,51.8,24,29.88,10.0,South,9.2,-,N/A,,Clear,170,2013-07-27 02:55:00
8:15 PM,89.6,51.8,27,29.89,10.0,South,6.9,-,N/A,,Clear,170,2013-07-27 03:15:00
8:35 PM,87.8,51.8,29,29.90,10.0,SSE,9.2,-,N/A,,Clear,160,2013-07-27 03:35:00
8:55 PM,86.0,51.8,31,29.90,10.0,SSE,10.4,-,N/A,,Clear,160,2013-07-27 03:55:00
9:15 PM,84.2,51.8,33,29.91,10.0,SSE,8.1,-,N/A,,Clear,150,2013-07-27 04:15:00
9:35 PM,82.4,51.8,35,29.92,10.0,SSE,8.1,-,N/A,,Clear,160,2013-07-27 04:35:00
9:55 PM,82.4,51.8,35,29.93,10.0,SSE,8.1,-,N/A,,Clear,160,2013-07-27 04:55:00
10:15 PM,80.6,51.8,37,29.94,10.0,SE,8.1,-,N/A,,Clear,140,2013-07-27 05:15:00
10:35 PM,78.8,50.0,36,29.95,10.0,SSE,9.2,-,N/A,,Clear,150,2013-07-27 05:35:00
10:55 PM,78.8,50.0,36,29.94,10.0,SSE,11.5,-,N/A,,Clear,150,2013-07-27 05:55:00
11:15 PM,77.0,50.0,39,29.94,10.0,SSE,9.2,-,N/A,,Clear,150,2013-07-27 06:15:00
11:35 PM,77.0,50.0,39,29.93,10.0,SSE,10.4,-,N/A,,Clear,150,2013-07-27 06:35:00
11:55 PM,73.4,50.0,44,29.93,10.0,SSE,5.8,-,N/A,,Clear,160,2013-07-27 06:55:00